Voltar ao catálogo

FENGYUN 1C DEB

AtivoSSO
NORAD 29956·DEBRIS·🇨🇳 China

Lançado May 10, 1999 de Taiyuan Satellite Launch Center

Loading…

Próximas Passagens (próximas 24 horas)

TLE

AtualizadoSource: Space-Track

Época: Sep 14, 2026, 14:03 UTC

1 29956U 99025KE  26257.58551440 -.00000037  00000-0  34696-5 0  9994
2 29956  98.7661 283.0512 0052712 322.1720 207.5479 14.06228611  9223

Acompanhe FENGYUN 1C DEB em tempo real com AllMySat

Download on the App Store